Madison, MN

2:16 AM CDT on September 19, 2019 (GMT -0500)
Madison-Lac Qui Parle County

Weather History for KDXX - July, 2019

Change the Weather History Date:

Friday, July 12, 2019

  Actual Average (WUND) Record (WUND)
Temperature  
Mean Temperature 78 °F -  
Max Temperature 89 °F - - (-1)
Min Temperature 68 °F - - (-1)
Cooling Degree Days 14    
Growing Degree Days 28 (Base 50)    
Moisture  
Dew Point 67 °F    
Average Humidity 68    
Maximum Humidity 88    
Minimum Humidity 38    
Precipitation  
Precipitation 0.00 in - - ()
Sea Level Pressure  
Sea Level Pressure 29.91 in    
Wind  
Wind Speed 6 mph (WNW)    
Max Wind Speed 12 mph    
Max Gust Speed -    
Visibility 10 miles    
Events Thunderstorm    
Averages and records for this station are not official NWS values.
T = Trace of Precipitation, MM = Missing Value Source: NWS Daily Summary

Daily Weather History Graph

Daily Weather History Graph

Search for Another Location

Airport or City:

Astronomy

Jul. 12, 2019 Rise Set
Actual Time 5:49 AM CDT 9:10 PM CDT
Civil Twilight 5:13 AM CDT 9:46 PM CDT
Nautical Twilight 4:25 AM CDT 10:34 PM CDT
Astronomical Twilight 3:26 AM CDT 11:33 PM CDT
Moon 5:27 PM CDT (7/12) 2:39 AM CDT (7/12)
Length of Visible Light 16h 33m
Length of Day
15h 21m
Waxing Gibbous, 83% of the Moon is Illuminated
Jul 12
Waxing Gibbous
Jul 16
Full
Jul 24
Last Quarter
Jul 31
New
Aug 7
First Quarter

Hourly Weather History & Observations

Time (CDT) Temp. Heat Index Dew Point Humidity Pressure Visibility Wind Dir Wind Speed Gust Speed Precip Events Conditions
12:18 AM 71.6 °F - 64.4 °F 78% 29.91 in 10.0 mi South 6.9 mph - N/A   Clear
12:37 AM 71.6 °F - 64.4 °F 78% 29.91 in 10.0 mi South 5.8 mph - N/A   Clear
12:56 AM 71.6 °F - 64.4 °F 78% 29.91 in 10.0 mi South 5.8 mph - N/A   Clear
1:15 AM 69.8 °F - 64.4 °F 83% 29.91 in 10.0 mi South 5.8 mph - N/A   Clear
1:16 AM 69.8 °F - 64.4 °F 83% 29.91 in 10.0 mi South 5.8 mph - N/A   Clear
1:35 AM 69.8 °F - 64.4 °F 83% 29.91 in 10.0 mi South 6.9 mph - N/A   Clear
1:57 AM 69.8 °F - 62.6 °F 78% 29.91 in 10.0 mi Calm Calm - N/A   Clear
2:16 AM 69.8 °F - 62.6 °F 78% 29.90 in 10.0 mi SSE 3.5 mph - N/A   Clear
2:35 AM 69.8 °F - 62.6 °F 78% 29.89 in 10.0 mi SSE 4.6 mph - N/A   Clear
2:36 AM 69.8 °F - 62.6 °F 78% 29.89 in 10.0 mi SSE 4.6 mph - N/A   Clear
2:55 AM 68.0 °F - 62.6 °F 83% 29.89 in 10.0 mi South 5.8 mph - N/A   Clear
2:56 AM 68.0 °F - 62.6 °F 83% 29.89 in 10.0 mi South 5.8 mph - N/A   Clear
3:19 AM 69.8 °F - 62.6 °F 78% 29.89 in 10.0 mi South 5.8 mph - N/A   Clear
3:36 AM 69.8 °F - 62.6 °F 78% 29.89 in 10.0 mi South 5.8 mph - N/A   Clear
3:56 AM 69.8 °F - 62.6 °F 78% 29.89 in 10.0 mi South 5.8 mph - N/A   Clear
4:15 AM 69.8 °F - 62.6 °F 78% 29.89 in 10.0 mi South 4.6 mph - N/A   Clear
4:35 AM 69.8 °F - 64.4 °F 83% 29.89 in 10.0 mi South 5.8 mph - N/A   Clear
4:39 AM 69.8 °F - 64.4 °F 83% 29.89 in 10.0 mi South 5.8 mph - N/A   Clear
4:58 AM 68.0 °F - 64.4 °F 88% 29.89 in 10.0 mi SSE 4.6 mph - N/A   Clear
5:16 AM 68.0 °F - 64.4 °F 88% 29.89 in 10.0 mi South 4.6 mph - N/A   Clear
5:35 AM 68.0 °F - 64.4 °F 88% 29.89 in 10.0 mi South 5.8 mph - N/A   Clear
5:36 AM 68.0 °F - 64.4 °F 88% 29.89 in 10.0 mi South 5.8 mph - N/A   Clear
5:55 AM 69.8 °F - 64.4 °F 83% 29.89 in 10.0 mi South 3.5 mph - N/A   Clear
5:56 AM 69.8 °F - 64.4 °F 83% 29.89 in 10.0 mi South 3.5 mph - N/A   Clear
6:18 AM 68.0 °F - 64.4 °F 88% 29.89 in 10.0 mi SE 3.5 mph - N/A   Clear
6:37 AM 69.8 °F - 66.2 °F 88% 29.89 in 10.0 mi South 3.5 mph - N/A   Clear
6:55 AM 71.6 °F - 66.2 °F 83% 29.89 in 10.0 mi Calm Calm - N/A   Clear
7:15 AM 73.4 °F - 68.0 °F 83% 29.89 in 10.0 mi SW 4.6 mph - N/A   Mostly Cloudy
7:16 AM 73.4 °F - 68.0 °F 83% 29.89 in 10.0 mi WSW 5.8 mph - N/A   Mostly Cloudy
7:35 AM 75.2 °F - 66.2 °F 73% 29.89 in 10.0 mi WSW 8.1 mph - N/A   Scattered Clouds
7:40 AM 75.2 °F - 66.2 °F 73% 29.89 in 10.0 mi WSW 6.9 mph - N/A   Scattered Clouds
7:57 AM 75.2 °F - 68.0 °F 78% 29.90 in 10.0 mi WSW 5.8 mph - N/A   Clear
8:15 AM 77.0 °F - 68.0 °F 74% 29.90 in 10.0 mi WSW 6.9 mph - N/A   Clear
8:35 AM 78.8 °F - 69.8 °F 74% 29.90 in 10.0 mi WSW 10.4 mph - N/A   Scattered Clouds
8:36 AM 78.8 °F - 68.0 °F 69% 29.90 in 10.0 mi WSW 10.4 mph - N/A   Scattered Clouds
8:55 AM 78.8 °F - 69.8 °F 74% 29.89 in 10.0 mi WSW 10.4 mph - N/A   Mostly Cloudy
8:56 AM 78.8 °F - 69.8 °F 74% 29.89 in 10.0 mi WSW 9.2 mph - N/A   Scattered Clouds
9:19 AM 80.6 °F 83.9 °F 69.8 °F 70% 29.88 in 10.0 mi West 5.8 mph - N/A   Scattered Clouds
9:37 AM 80.6 °F 84.6 °F 71.6 °F 74% 29.89 in 10.0 mi West 4.6 mph - N/A   Scattered Clouds
9:56 AM 80.6 °F 84.6 °F 71.6 °F 74% 29.90 in 10.0 mi WNW 5.8 mph - N/A   Mostly Cloudy
10:15 AM 82.4 °F 87.2 °F 71.6 °F 70% 29.90 in 10.0 mi NW 9.2 mph - N/A   Scattered Clouds
10:35 AM 82.4 °F 87.2 °F 71.6 °F 70% 29.92 in 10.0 mi West 9.2 mph - N/A   Clear
10:39 AM 82.4 °F 87.2 °F 71.6 °F 70% 29.92 in 10.0 mi WNW 9.2 mph - N/A   Clear
10:57 AM 80.6 °F 84.6 °F 71.6 °F 74% 29.92 in 10.0 mi WNW 6.9 mph - N/A Thunderstorm Clear
11:16 AM 80.6 °F 84.6 °F 71.6 °F 74% 29.92 in 10.0 mi Calm Calm - N/A Thunderstorm Clear
11:35 AM 80.6 °F 84.6 °F 71.6 °F 74% 29.91 in 10.0 mi West 3.5 mph - N/A Thunderstorm Clear
11:36 AM 80.6 °F 84.6 °F 71.6 °F 74% 29.91 in 10.0 mi Calm Calm - N/A Thunderstorm Clear
11:55 AM 80.6 °F 85.4 °F 73.4 °F 79% 29.90 in 10.0 mi NW 4.6 mph - N/A   Clear
11:56 AM 82.4 °F 88.2 °F 73.4 °F 74% 29.90 in 10.0 mi NW 4.6 mph - N/A   Clear
12:18 PM 82.4 °F 87.2 °F 71.6 °F 70% 29.91 in 10.0 mi WNW 5.8 mph - N/A   Clear
12:36 PM 84.2 °F 89.6 °F 71.6 °F 66% 29.91 in 10.0 mi West 5.8 mph - N/A   Clear
12:55 PM 86.0 °F 90.4 °F 69.8 °F 58% 29.90 in 10.0 mi NW 4.6 mph - N/A   Clear
1:15 PM 87.8 °F 93.8 °F 71.6 °F 58% 29.89 in 10.0 mi NW 8.1 mph - N/A   Clear
1:16 PM 87.8 °F 93.8 °F 71.6 °F 58% 29.89 in 10.0 mi NW 6.9 mph - N/A   Clear
1:35 PM 87.8 °F 92.6 °F 69.8 °F 55% 29.89 in 10.0 mi NNW 6.9 mph - N/A   Clear
1:40 PM 87.8 °F 91.4 °F 68.0 °F 52% 29.89 in 10.0 mi North 3.5 mph - N/A   Clear
1:57 PM 89.6 °F 89.5 °F 60.8 °F 38% 29.89 in 10.0 mi NNW 9.2 mph - N/A   Clear
2:15 PM 87.8 °F 89.4 °F 64.4 °F 46% 29.89 in 10.0 mi NW 8.1 mph - N/A   Clear
2:35 PM 89.6 °F 92.2 °F 66.2 °F 46% 29.89 in 10.0 mi NNW 8.1 mph - N/A   Clear
2:36 PM 89.6 °F 92.2 °F 66.2 °F 46% 29.89 in 10.0 mi NNW 8.1 mph - N/A   Clear
2:55 PM 89.6 °F 89.5 °F 60.8 °F 38% 29.89 in 10.0 mi North 9.2 mph - N/A   Clear
2:56 PM 89.6 °F 89.5 °F 60.8 °F 38% 29.89 in 10.0 mi North 10.4 mph - N/A   Clear
3:18 PM 89.6 °F 89.5 °F 60.8 °F 38% 29.89 in 10.0 mi North 11.5 mph - N/A   Clear
3:37 PM 89.6 °F 90.1 °F 62.6 °F 40% 29.90 in 10.0 mi North 8.1 mph - N/A   Clear
3:56 PM 89.6 °F 90.1 °F 62.6 °F 40% 29.90 in 10.0 mi North 10.4 mph - N/A   Clear
4:15 PM 89.6 °F 90.1 °F 62.6 °F 40% 29.89 in 10.0 mi North 9.2 mph - N/A   Clear
4:35 PM 89.6 °F 91.1 °F 64.4 °F 43% 29.90 in 10.0 mi North 8.1 mph - N/A   Clear
4:39 PM 89.6 °F 91.1 °F 64.4 °F 43% 29.90 in 10.0 mi NNW 10.4 mph - N/A   Clear
4:57 PM 87.8 °F 90.4 °F 66.2 °F 49% 29.90 in 10.0 mi NW 8.1 mph - N/A   Clear
5:16 PM 87.8 °F 89.4 °F 64.4 °F 46% 29.91 in 10.0 mi NW 10.4 mph - N/A   Clear
5:35 PM 87.8 °F 89.4 °F 64.4 °F 46% 29.91 in 10.0 mi NW 9.2 mph - N/A   Clear
5:36 PM 87.8 °F 88.5 °F 62.6 °F 43% 29.91 in 10.0 mi NW 6.9 mph - N/A   Clear
5:55 PM 87.8 °F 89.4 °F 64.4 °F 46% 29.91 in 10.0 mi NNW 6.9 mph - N/A   Clear
5:56 PM 87.8 °F 89.4 °F 64.4 °F 46% 29.91 in 10.0 mi NNW 5.8 mph - N/A   Clear
6:19 PM 87.8 °F 89.4 °F 64.4 °F 46% 29.91 in 10.0 mi North 5.8 mph - N/A   Clear
6:36 PM 87.8 °F 91.4 °F 68.0 °F 52% 29.91 in 10.0 mi WNW 5.8 mph - N/A   Clear
6:56 PM 87.8 °F 91.4 °F 68.0 °F 52% 29.91 in 10.0 mi NW 6.9 mph - N/A   Clear
7:15 PM 87.8 °F 91.4 °F 68.0 °F 52% 29.92 in 10.0 mi NNW 5.8 mph - N/A   Clear
7:16 PM 86.0 °F 89.4 °F 68.0 °F 55% 29.92 in 10.0 mi NW 5.8 mph - N/A   Clear
7:38 PM 86.0 °F 89.4 °F 68.0 °F 55% 29.92 in 10.0 mi NNW 6.9 mph - N/A   Clear
7:55 PM 84.2 °F 88.4 °F 69.8 °F 62% 29.92 in 10.0 mi NNW 5.8 mph - N/A   Clear
8:15 PM 82.4 °F 86.3 °F 69.8 °F 66% 29.92 in 10.0 mi North 4.6 mph - N/A   Clear
8:16 PM 82.4 °F 86.3 °F 69.8 °F 66% 29.92 in 10.0 mi North 4.6 mph - N/A   Clear
8:35 PM 80.6 °F 83.9 °F 69.8 °F 70% 29.92 in 10.0 mi North 4.6 mph - N/A   Clear
8:58 PM 80.6 °F 83.9 °F 69.8 °F 70% 29.92 in 10.0 mi Calm Calm - N/A   Clear
9:17 PM 80.6 °F 83.2 °F 68.0 °F 65% 29.93 in 10.0 mi Calm Calm - N/A   Clear
9:36 PM 80.6 °F 82.7 °F 66.2 °F 61% 29.93 in 10.0 mi Calm Calm - N/A   Clear
9:55 PM 78.8 °F - 68.0 °F 69% 29.94 in 10.0 mi Calm Calm - N/A   Clear
9:56 PM 78.8 °F - 66.2 °F 65% 29.94 in 10.0 mi Calm Calm - N/A   Clear
10:15 PM 78.8 °F - 66.2 °F 65% 29.94 in 10.0 mi Calm Calm - N/A   Clear
10:37 PM 73.4 °F - 66.2 °F 78% 29.94 in 10.0 mi NNE 3.5 mph - N/A   Clear
10:55 PM 73.4 °F - 66.2 °F 78% 29.94 in 10.0 mi NNE 4.6 mph - N/A   Clear
11:15 PM 73.4 °F - 66.2 °F 78% 29.95 in 10.0 mi Calm Calm - N/A   Clear
11:16 PM 73.4 °F - 66.2 °F 78% 29.94 in 10.0 mi Calm Calm - N/A   Clear
11:35 PM 71.6 °F - 66.2 °F 83% 29.95 in 10.0 mi NE 4.6 mph - N/A   Clear
11:36 PM 71.6 °F - 66.2 °F 83% 29.95 in 10.0 mi NE 4.6 mph - N/A   Clear
11:59 PM 71.6 °F - 66.2 °F 83% 29.95 in 10.0 mi ENE 4.6 mph - N/A   Clear